Location: *
(36.0033°N, 74.8753°E)
Time: 05:30:35
(UTC+00:00)

Daily predictions for brighter satellites

Satellite Brightness Start Highest point End
(mag) Time Altitude Azimuth Time Altitude Azimuth Time Altitude Azimuth
Sich 1 Rocket 3.6 00:01:35 10° N 00:06:03 87° W 00:10:33 10° S
Cosmos 2221 Rocket 3.7 00:01:45 10° S 00:06:09 82° E 00:10:34 10° N
Shenzhou-11 Module 1.7 00:04:53 13° WSW 00:07:17 82° SSE 00:10:02 10° ENE
CZ-4B R/B 4.3 00:02:03 10° NNE 00:07:22 49° E 00:12:33 10° S
OAO 2 Rocket 3.3 00:03:59 12° WSW 00:08:33 74° S 00:13:28 10° E
Meteor PRIRODA 3.8 00:06:46 10° N 00:10:20 50° WNW 00:13:57 10° SSW
Timation 2 Rocket 4.5 00:05:48 10° NW 00:11:03 33° WSW 00:16:16 10° SSW
PSLV R/B 3.9 00:07:08 10° N 00:11:04 59° WNW 00:14:53 10° SSW
Okean 1 3.2 00:07:37 10° SSW 00:11:33 68° W 00:15:30 10° N
Cosmos 1666 3.0 00:09:36 10° NNW 00:13:11 42° W 00:16:45 10° SSW
Meteor 1-31 Rocket 3.6 00:09:49 10° N 00:13:15 30° WNW 00:16:38 10° SW
H-2A R/B 4.3 00:12:02 10° NW 00:13:26 12° WNW 00:14:51 10° W
Cosmos 1340 4.1 00:14:50 10° NW 00:17:30 19° W 00:20:10 10° SW
BREEZE-M DEB (TANK) 4.3 00:12:22 10° WNW 00:18:22 24° NNW 00:21:06 10° NE
Helios 1A Rocket 2.9 00:16:23 10° N 00:20:28 84° WNW 00:24:33 10° SSW
Cosmos 2084 Rocket 4.0 00:16:37 10° NW 00:20:37 36° WSW 00:24:35 10° S
Cosmos 1975 3.5 00:16:52 10° N 00:20:55 63° E 00:24:56 10° SSE
Cosmos 1697 Rocket 3.9 00:18:35 10° S 00:23:58 49° ESE 00:29:24 10° NNE
Okean 1-7 4.1 00:21:19 10° SW 00:24:57 25° WNW 00:28:36 10° NNW
Cosmos 1680 Rocket 3.7 00:20:28 10° SSW 00:25:36 54° WNW 00:30:45 10° N
Cosmos 2227 Rocket 3.4 00:20:11 10° N 00:25:42 49° ENE 00:31:10 10° SE
ASTRO E2 3.5 00:22:02 10° WSW 00:25:47 41° S 00:29:33 10° ESE
Cosmos 2219 3.3 00:21:56 10° NNW 00:27:39 90° WSW 00:33:16 10° SSE
BREEZE-M DEB (TANK) 3.1 00:20:41 10° SW 00:30:57 87° NW 00:34:08 10° NE
